Погода в Иртышске

Погода в Иртышске : погода сейчас, прогноз погоды и архив. Всё, что Вы хотите узнать о погоде в Иртышске!

Хотите узнать прогноз погоды в Иртышске? Тогда Вам сюда: Погода в Иртышске

Поиск расширенной информации на нашем сайте:

Другие новости

Новости СМИ2

Главная страница сайта

Новости сайта

03.07.2017

Напоминаем, что на нашем специализированном сайте Метеоцентр.Азия вы можете получить высокодетализированные автоматические прогнозы погоды по пунктам России, СНГ и мира в авиационном формате (включающие направление и скорость ветра, видимость, явления погоды, количество и форму облачности, нижнюю и верхнюю границу облачности).

Рекомендуем: Описание автозапчасти для mercedes у нас на сайте.

Погода в Иртышске - сегодня

Время (UTC), дата Ветер
(°,м/с) 
Видим.   Явления Облачность Т
(°С)
Тd
(°С)
f(%) Тe
(°С)
Pmin
(гПа)
dP
(гПа)
Po
(мм)
O2
(г/м3)
Тmin Tmax R s Состояние
почвы
15 13.02.18 100 (В) н/о    8/0 верхняя 
[Ci fib]
-18 -20.8 79 -22  1021.9  -0.9  757  328    -17.2       
18 13.02.18 090 (В) н/о    8/8 600 м 
[Sc]
-16.4 -19.3 78 -19  1020.4  -1.4  756  326    -17.2       
21 13.02.18 110 (В) н/о    10/10 600 м 
[Sc]
-14.7 -17.8 77 -17  1018.4  -1.9  754  323           
00 14.02.18 100 (В) н/о    10/10 600 м 
[Sc]
-13.5 -16.8 76 -16  1016.5  -1.8  753  321           
03 14.02.18 100 (В) 4000 м  снег  10/10 300 м 
[Ns]
-12.7 -15.1 82 -16  1015.5  -1  752  319      18  равномерный
сухой снег
100% 
09 14.02.18 110 (В) 4000 м  слаб. снег  10/10 300 м 
[Ns]
-9.6 -11.7 85 -9  1013.2  -0.8  751  315           
18 14.02.18 270 (З) н/о    ясно 
-21.9 -25.6 72 -26  1017.1  1.2  753  332    -8.3     
21 14.02.18 250 (З) н/о    ясно 
-24.2 -28.3 69 -27  1018.1  0.9  754  335           
00 15.02.18 220 (ЮЗ) н/о    ясно 
-26.3 -30.4 68 -31  1018.2  -0.1  754  338           
06 15.02.18 220 (ЮЗ) 10 км    ясно 
-22 -27 64 -28  1019.7  0.8  755  333  -27.2         
09 15.02.18 210 (ЮЗ) 10 км    ясно 
-20.7 -25.9 63 -21  1020.9  1.3  756  331           
12 15.02.18 180 (Ю) 10 км    ясно 
-21.8 -26 69 -22  1022.8  1.8  757  333           
15 15.02.18 тихо ()   н/о    ясно 
-24.9 -28.6 71 -25  1025.1  2.2  759  338    -20.2       
21 15.02.18 тихо ()   н/о  дымка  10/10 600 м 
[Sc]
-25.3 -29 71 -25  1028.7  1.8  762  340           
00 16.02.18 тихо ()   н/о    10/10 600 м 
[Sc]
-22 -25.4 74 -22  1030.3  1.8  763  336           
06 16.02.18 280 (З) 10 км    6/6 600 м 
[Sc]
-15.6 -18.3 80 -16  1033.9  1.8  766  329  -25.7         
09 16.02.18 260 (З) 10 км    ясно 
-17 -21.2 70 -19  1035.6  1.7  767  331           
12 16.02.18 260 (З) 10 км    8/0 верхняя 
[Cs]
-18.7 -22.2 74 -21  1037.1  1.4  768  334           
15 16.02.18 250 (З) н/о    9/0 верхняя 
[Cs]
-23 -26.5 73 -23  1038.7  1.4  769  340    -15.4       
18 16.02.18 300 (СЗ) н/о    6/0 верхняя 
[Ci sp]
-23.2 -26.7 73 -24  1039.3  0.6  770  341    -15.4       
21 16.02.18 230 (ЮЗ) н/о    ясно 
-25.7 -29.6 70 -26  1040.1  0.6  770  344           
06 17.02.18 тихо ()   10 км  {туман}  ясно 
-19.9 -23 76 -20  1041.7  0.3  772  337  -26.7         
09 17.02.18 тихо ()   10 км    6/0 верхняя 
[Ci fib]
-18.5 -21.5 77 -19  1041.4  -0.3  771  335           
12 17.02.18 тихо ()   10 км    6/6 600 м 
[Sc]
-21.4 -24.8 74 -21  1041.6  0.1  771  339           
15 17.02.18 тихо ()   н/о    10/10 600 м 
[Sc]
-23.3 -26.8 73 -23  1041.9  0.2  772  342    -18.1       
Время (UTC), дата Ветер
(°,м/с) 
Видим.   Явления Облачность Т
(°С)
Тd
(°С)
f(%) Тe
(°С)
Pmin
(гПа)
dP
(гПа)
Po
(мм)
O2
(г/м3)
Тmin Tmax R s Состояние
почвы

Для получения пояснительной информации подведите курсор к названию столбца.

ПОГОДА в Иртышске - архив

Всё, что Вы хотите узнать о погоде в Иртышске - удобно и подробно!

Выберите нужную дату (начиная с 1 января 2015* года) и нажмите кнопку "Найти".
Будут отображены архивные сводки погоды по пункту Иртышск, начиная с указанной даты.


Отображать данные в формате CSV (для использования в таблицах Excel)


Внимание! Наш архив погоды предназначен исключительно для личного некоммерческого использования в познавательных целях. Если Вам необходимы официальные справки о состоянии погоды (для производственных, юридических, коммерческих и т.п. целей), обращайтесь в органы Росгидромета.

*Примечание: данная дата относится к архиву по метеостанциям СССР (Россия, СНГ, Балтия).
Архив по метеостанциям Зарубежной Европы и Азии (кроме Китая) хранится 10 дней, по другим регионам земного шара (Китай, Африка, Америка, Австралия, Океания) - 1 день.

Иртышск - район местоположения метеостанции


Название, широта, долгота, высота метеостанции:
Иртышск 53.3°ш. 75.4°д. 94 м над ур. моря [Казахстан]

Дополнительная информация

В oтличие oт бoльшинства пoгoдных сайтoв мы публикуем пoдрoбную метеoинфoрмацию в детальнoм прoфессиoнальнoм фoрмате.

Характеристики температуры и влажнoсти вoздуха измеряются на высoте 2 м в тени вдали oт зданий и деревьев.
Скoрoсть ветра измеряется на высoте 10 м (на урoвне рoста челoвека скoрoсть ветра ниже в 1.5-2 раза). Если метеoстанция нахoдится в гoрoде или в лесу, тo скoрoсть ветра занижена на 2-4 м/с пo сравнению с oткрытым местoм. Скoрoсть ветра над акватoриями крупных рек и oзёр, а также на вершинах хoлмoв на 2-5 м/с выше, чем в oбычных услoвиях.
Атмoсфернoе давление в разных тoчках местнoсти мoжет значительнo oтличаться oт давления на метеoстанции, в зависимoсти oт услoвий рельефа (при пoдъёме на 10 м давление пoнижается примернo на 1 мм рт.ст.).